Regional Weather Roundup
Issued by NWS

Home | Current Version | Previous Version | Graphics & Text | Print | Product List | Glossary On
Versions: 1 2 3 4 5 6 7 8 9 10 11 12 13 14 15 16 17 18 19 20 21 22 23 24 25 26 27 28 29 30 31 32 33 34 35 36 37 38 39 40 41 42 43 44 45 46 47 48 49 50
000
ASUS43 KDTX 271401
RWRMI
MICHIGAN HOURLY REGIONAL WEATHER ROUNDUP
NATIONAL WEATHER SERVICE DETROIT/PONTIAC MI
900 AM EST MON FEB 27 2017

NOTE: "FAIR" INDICATES FEW OR NO CLOUDS BELOW 12,000 FEET WITH NO
SIGNIFICANT WEATHER AND/OR OBSTRUCTION TO VISIBILITY.

MIZ047>049-052>055-059>063-066>070-074>076-081>083-271500-
SOUTHEAST LOWER MICHIGAN

CITY           SKY/WX    TMP DP  RH WIND       PRES   REMARKS
ADRIAN         SUNNY     34  25  69 SW9       30.22R WCI  27
ALMA           SUNNY     34  27  75 SW5       30.18R WCI  30
ANN ARBOR      SUNNY     35  26  69 SW3       30.20R
BAD AXE        SUNNY     33  28  79 CALM      30.18R
CARO           SUNNY     36  28  71 W7        30.17R WCI  31
DETROIT CITY   SUNNY     38  25  59 SW9       30.21R WCI  31
DETROIT        MOSUNNY   38  25  59 SW8       30.21R WCI  32
FLINT          SUNNY     36  26  67 VRB6      30.19R WCI  31
GROSSE ILE     SUNNY     37  25  60 S7        30.21R WCI  32
HILLSDALE      SUNNY     34  27  75 SW3       30.18R
HOWELL         SUNNY     37  25  62 W6        30.18R WCI  32

CITY           SKY/WX    TMP DP  RH WIND       PRES   REMARKS
JACKSON        SUNNY     37  25  61 SW7       30.19R WCI  32
LAMBERTVILLE   SUNNY     38  24  56 SW6       30.22R WCI  33
LANSING        SUNNY     36  25  64 W5        30.19R WCI  32
LAPEER         PTSUNNY   37  26  65 W8        30.18S WCI  31
MASON          SUNNY     37  27  69 W5        30.19R WCI  33
MONROE         SUNNY     37  25  61 SW6       30.21R WCI  33
PONTIAC        MOSUNNY   36  24  62 W3        30.16S
PORT HOPE        N/A     33  26  75 NE3       30.16R
PORT HURON     SUNNY     37  25  60 SW3       30.19S
TRI CITIES     SUNNY     35  28  75 SW5       30.18R WCI  31
MIDLAND        FAIR      34  26  71 CALM      30.17R
TROY           SUNNY     35  23  61 SW5       30.21R WCI  31
SAGINAW HB     SUNNY     36  27  69 SW5       30.18R WCI  32
$$
MIZ043>046-050>051-056>058-064>065-071>073-077>080-271500-
SOUTHWEST LOWER MICHIGAN

CITY           SKY/WX    TMP DP  RH WIND       PRES   REMARKS
BATTLE CREEK   SUNNY     35  27  72 S6        30.18R WCI  30
BENTON HARBOR  SUNNY     35  26  69 SE5       30.18R WCI  31
BIG RAPIDS     SUNNY     30  25  83 CALM      30.14R
COLDWATER      SUNNY     37  25  63 SW7       30.19R WCI  31
FREMONT        FAIR      32  27  82 CALM      30.16R
HOLLAND        SUNNY     34  29  82 SE5       30.17R WCI  30
GRAND RAPIDS   MOSUNNY   33  29  85 S3        30.17R
IONIA          FAIR      34  29  82 CALM      30.17R
KALAMAZOO      SUNNY     36  26  67 S5        30.18R WCI  32
LUDINGTON      SUNNY     29  25  84 SE6       30.14S WCI  23
MARSHALL       SUNNY     36  26  66 SW6       30.18R WCI  31
MOUNT PLEASANT SUNNY     34  26  73 SW3       30.16R
MUSKEGON       SUNNY     34  29  82 CALM      30.17R
SOUTH HAVEN    SUNNY     37  31  82 S3        30.18R
$$
MIZ016>042-271500-
NORTHERN LOWER MICHIGAN

CITY           SKY/WX    TMP DP  RH WIND       PRES   REMARKS
ALPENA         SUNNY     27  17  66 CALM      30.17R
BEAVER ISLAND  SUNNY     15  12  90 CALM      30.14R
BELLAIRE       MOSUNNY   23  18  81 CALM      30.17R
CADILLAC       SUNNY     21  18  86 CALM      30.12R
CHARLEVOIX     SUNNY     24  16  71 CALM      30.17R
FRANKFORT      SUNNY     26  19  76 SE5       30.15R WCI  20
GAYLORD        SUNNY     20  14  77 S5        30.12R WCI  13
GRAYLING       SUNNY     27  15  60 S3        30.15R
HARBOR SPRINGS SUNNY     20  14  77 NE3       30.15R
HOUGHTON LAKE  SUNNY     28  17  63 CALM      30.15R
MANISTEE       SUNNY     28  21  75 E9        30.15R WCI  19
OSCODA         SUNNY     31  19  59 CALM      30.17R
PELLSTON       SUNNY     14  10  84 CALM      30.15R
ROGERS CITY    SUNNY     24  16  72 SW3       30.17R
TRAVERSE CITY  SUNNY     27  16  63 S5        30.15R WCI  22
$$
MIZ007>008-015-271500-
EASTERN UPPER MICHIGAN

CITY           SKY/WX    TMP DP  RH WIND       PRES   REMARKS
KINROSS        SUNNY     20  12  71 SW5       30.14R WCI  13
MACKINAC ISLAN SUNNY     23  12  61 W3        30.14R
NEWBERRY       SUNNY     13  10  85 SW5       30.11R WCI   5
S. S. MARIE    SUNNY     18  11  74 CALM      30.13R
MUNISING         N/A     15   6  67 S8        30.10R WCI   4
$$
MIZ004>006-011>014-085-271500-
CENTRAL UPPER MICHIGAN

CITY           SKY/WX    TMP DP  RH WIND       PRES   REMARKS
MANISTIQUE     SUNNY     11   8  87 CALM      30.12R
ESCANABA       CLOUDY    14  12  92 CALM      30.12R
MENOMINEE      SUNNY     25  13  60 S7        30.12R WCI  17
SAWYER-GWINN   CLOUDY     0  -4  85 CALM      30.05R
$$
MIZ001>003-009>011-084-271500-
WESTERN UPPER MICHIGAN

CITY           SKY/WX    TMP DP  RH WIND       PRES   REMARKS
IRON MOUNTAIN  CLOUDY    11   7  84 CALM      30.05R
HOUGHTON       CLOUDY    16   4  59 SW9       30.01R WCI   4
COPPER HARBOR    N/A     19   9  65 SW9       30.03R WCI   8
IRONWOOD       FLURRIES  18  12  77 S7        29.99R WCI   9
$$

ABBREVIATIONS USED IN REMARKS
   TC - TEMPERATURE IN CELSIUS
  WCI - WIND CHILL INDEX
   HX - HEAT INDEX
  VSB - VISIBILITY





USA.gov is the U.S. government's official web portal to all federal, state and local government web resources and services.